Time,TemperatureF,DewpointF,PressureIn,WindDirection,WindDirectionDegrees,WindSpeedMPH,WindSpeedGustMPH,Humidity,HourlyPrecipIn,Conditions,Clouds,dailyrainin,SoftwareType,DateUTC
2013-11-14 00:00:00,37.0,20.5,30.13,WNW,292,0.0,10.0,51,0.00,,,-99.99,Weather View 32 v60,2013-11-14 06:00:00,
2013-11-14 00:30:00,36.0,20.1,30.12,WNW,292,0.0,4.0,52,0.00,,,-99.99,Weather View 32 v60,2013-11-14 06:30:00,
2013-11-14 01:00:00,36.0,20.5,30.12,West,270,0.0,2.0,53,0.00,,,-99.99,Weather View 32 v60,2013-11-14 07:00:00,
2013-11-14 01:30:00,36.0,21.0,30.12,West,270,0.0,2.0,54,0.00,,,-99.99,Weather View 32 v60,2013-11-14 07:30:00,
2013-11-14 02:00:00,36.0,21.4,30.11,NW,315,0.0,4.0,55,0.00,,,-99.99,Weather View 32 v60,2013-11-14 08:00:00,
2013-11-14 02:30:00,36.0,21.8,30.11,NW,315,0.0,4.0,56,0.00,,,-99.99,Weather View 32 v60,2013-11-14 08:30:00,
2013-11-14 03:00:00,35.0,21.3,30.10,NNW,338,0.0,5.0,57,0.00,,,-99.99,Weather View 32 v60,2013-11-14 09:00:00,
2013-11-14 03:30:00,35.0,21.7,30.09,West,270,0.0,5.0,58,0.00,,,-99.99,Weather View 32 v60,2013-11-14 09:30:00,
2013-11-14 04:00:00,35.0,22.1,30.09,WNW,292,0.0,3.0,59,0.00,,,-99.99,Weather View 32 v60,2013-11-14 10:00:00,
2013-11-14 04:30:00,35.0,22.9,30.09,North,0,0.0,3.0,61,0.00,,,-99.99,Weather View 32 v60,2013-11-14 10:30:00,
2013-11-14 05:00:00,34.0,22.3,30.09,NW,315,0.0,0.0,62,0.00,,,-99.99,Weather View 32 v60,2013-11-14 11:00:00,
2013-11-14 05:30:00,34.0,22.7,30.09,West,270,0.0,0.0,63,0.00,,,-99.99,Weather View 32 v60,2013-11-14 11:30:00,
2013-11-14 06:00:00,34.0,23.1,30.08,WNW,292,0.0,0.0,64,0.00,,,-99.99,Weather View 32 v60,2013-11-14 12:00:00,
2013-11-14 06:30:00,34.0,23.5,30.08,WNW,292,0.0,0.0,65,0.00,,,-99.99,Weather View 32 v60,2013-11-14 12:30:00,
2013-11-14 06:59:00,35.0,22.1,29.36,SSW,202,5.0,10.0,59,0.00,,,-99.99,Weather View 32 v60,2013-11-14 12:59:00,
2013-11-14 07:00:00,34.0,23.8,30.08,West,270,0.0,0.0,66,0.00,,,-99.99,Weather View 32 v60,2013-11-14 13:00:00,
2013-11-14 07:29:00,35.0,22.1,29.35,South,180,6.0,11.0,59,0.00,,,-99.99,Weather View 32 v60,2013-11-14 13:29:00,
2013-11-14 07:30:00,35.0,22.1,29.35,South,180,6.0,11.0,59,0.00,,,-99.99,Weather View 32 v60,2013-11-14 13:30:00,
2013-11-14 07:59:00,36.0,23.0,29.36,SW,225,10.0,11.0,59,0.00,,,-99.99,Weather View 32 v60,2013-11-14 13:59:00,
2013-11-14 08:00:00,36.0,24.2,30.07,West,270,0.0,0.0,62,0.00,,,-99.99,Weather View 32 v60,2013-11-14 14:00:00,
2013-11-14 08:29:00,37.0,23.2,29.35,SW,225,8.0,16.0,57,0.00,,,-99.99,Weather View 32 v60,2013-11-14 14:29:00,
2013-11-14 08:30:00,37.0,23.2,29.35,SW,225,8.0,16.0,57,0.00,,,-99.99,Weather View 32 v60,2013-11-14 14:30:00,
2013-11-14 08:59:00,39.0,23.7,29.35,SW,225,11.0,16.0,54,0.00,,,-99.99,Weather View 32 v60,2013-11-14 14:59:00,
2013-11-14 09:00:00,39.0,25.9,30.06,West,270,0.0,17.0,59,0.00,,,-99.99,Weather View 32 v60,2013-11-14 15:00:00,
2013-11-14 09:29:00,41.0,24.7,29.35,SSW,202,10.0,18.0,52,0.00,,,-99.99,Weather View 32 v60,2013-11-14 15:29:00,
2013-11-14 09:30:00,41.0,24.7,29.35,SSW,202,10.0,18.0,52,0.00,,,-99.99,Weather View 32 v60,2013-11-14 15:30:00,
2013-11-14 09:59:00,42.0,24.7,29.34,SW,225,12.0,19.0,50,0.00,,,-99.99,Weather View 32 v60,2013-11-14 15:59:00,
2013-11-14 10:00:00,40.0,26.8,30.06,NW,315,0.0,13.0,59,0.00,,,-99.99,Weather View 32 v60,2013-11-14 16:00:00,
2013-11-14 10:29:00,44.0,26.5,29.33,West,270,5.0,19.0,50,0.00,,,-99.99,Weather View 32 v60,2013-11-14 16:29:00,
2013-11-14 10:30:00,44.0,26.5,29.33,West,270,5.0,19.0,50,0.00,,,-99.99,Weather View 32 v60,2013-11-14 16:30:00,
2013-11-14 10:59:00,45.0,27.0,29.32,WSW,248,8.0,17.0,49,0.00,,,-99.99,Weather View 32 v60,2013-11-14 16:59:00,
2013-11-14 11:00:00,43.0,28.8,30.03,West,270,0.0,17.0,57,0.00,,,-99.99,Weather View 32 v60,2013-11-14 17:00:00,
2013-11-14 11:29:00,46.0,26.9,29.31,West,270,5.0,16.0,47,0.00,,,-99.99,Weather View 32 v60,2013-11-14 17:29:00,
2013-11-14 11:30:00,46.0,26.9,29.31,West,270,5.0,16.0,47,0.00,,,-99.99,Weather View 32 v60,2013-11-14 17:30:00,
2013-11-14 11:59:00,47.0,27.3,29.30,WSW,248,9.0,16.0,46,0.00,,,-99.99,Weather View 32 v60,2013-11-14 17:59:00,
2013-11-14 12:00:00,45.0,29.3,30.01,NW,315,0.0,13.0,54,0.00,,,-99.99,Weather View 32 v60,2013-11-14 18:00:00,
2013-11-14 12:29:00,48.0,28.2,29.29,WSW,248,5.0,16.0,46,0.00,,,-99.99,Weather View 32 v60,2013-11-14 18:29:00,
2013-11-14 12:30:00,48.0,28.2,29.29,WSW,248,5.0,16.0,46,0.00,,,-99.99,Weather View 32 v60,2013-11-14 18:30:00,
2013-11-14 12:59:00,50.0,28.9,29.29,SSW,202,6.0,16.0,44,0.00,,,-99.99,Weather View 32 v60,2013-11-14 18:59:00,
2013-11-14 13:00:00,47.0,30.7,29.99,NW,315,7.0,11.0,53,0.00,,,-99.99,Weather View 32 v60,2013-11-14 19:00:00,
2013-11-14 13:29:00,50.0,28.9,29.27,SSW,202,6.0,17.0,44,0.00,,,-99.99,Weather View 32 v60,2013-11-14 19:29:00,
2013-11-14 13:30:00,50.0,28.9,29.27,SSW,202,6.0,17.0,44,0.00,,,-99.99,Weather View 32 v60,2013-11-14 19:30:00,
2013-11-14 13:59:00,51.0,29.8,29.28,SSW,202,9.0,17.0,44,0.00,,,-99.99,Weather View 32 v60,2013-11-14 19:59:00,
2013-11-14 14:00:00,47.0,31.2,29.99,West,270,0.0,12.0,54,0.00,,,-99.99,Weather View 32 v60,2013-11-14 20:00:00,
2013-11-14 14:29:00,51.0,30.4,29.28,SW,225,8.0,16.0,45,0.00,,,-99.99,Weather View 32 v60,2013-11-14 20:29:00,
2013-11-14 14:30:00,51.0,30.4,29.28,SW,225,8.0,16.0,45,0.00,,,-99.99,Weather View 32 v60,2013-11-14 20:30:00,
2013-11-14 14:59:00,50.0,29.5,29.30,SW,225,7.0,14.0,45,0.00,,,-99.99,Weather View 32 v60,2013-11-14 20:59:00,
2013-11-14 15:00:00,47.0,31.6,29.99,West,270,0.0,11.0,55,0.00,,,-99.99,Weather View 32 v60,2013-11-14 21:00:00,
2013-11-14 15:29:00,50.0,30.0,29.29,SW,225,4.0,12.0,46,0.00,,,-99.99,Weather View 32 v60,2013-11-14 21:29:00,
2013-11-14 15:30:00,50.0,30.0,29.29,SW,225,4.0,12.0,46,0.00,,,-99.99,Weather View 32 v60,2013-11-14 21:30:00,
2013-11-14 15:59:00,49.0,29.6,29.29,SSW,202,7.0,12.0,47,0.00,,,-99.99,Weather View 32 v60,2013-11-14 21:59:00,
2013-11-14 16:00:00,45.0,31.1,30.00,WSW,248,0.0,0.0,58,0.00,,,-99.99,Weather View 32 v60,2013-11-14 22:00:00,
2013-11-14 16:29:00,48.0,29.7,29.29,SSW,202,5.0,11.0,49,0.00,,,-99.99,Weather View 32 v60,2013-11-14 22:29:00,
2013-11-14 16:30:00,44.0,31.0,30.00,West,270,0.0,1.0,60,0.00,,,-99.99,Weather View 32 v60,2013-11-14 22:30:00,
2013-11-14 16:59:00,48.0,30.2,29.29,SSW,202,5.0,12.0,50,0.00,,,-99.99,Weather View 32 v60,2013-11-14 22:59:00,
2013-11-14 17:00:00,44.0,31.4,30.01,WSW,248,0.0,1.0,61,0.00,,,-99.99,Weather View 32 v60,2013-11-14 23:00:00,
2013-11-14 17:29:00,47.0,30.3,29.30,SW,225,6.0,13.0,52,0.00,,,-99.99,Weather View 32 v60,2013-11-14 23:29:00,
2013-11-14 17:30:00,44.0,31.4,30.03,WNW,292,0.0,0.0,61,0.00,,,-99.99,Weather View 32 v60,2013-11-14 23:30:00,
2013-11-14 17:59:00,46.0,30.3,29.30,SW,225,7.0,13.0,54,0.00,,,-99.99,Weather View 32 v60,2013-11-14 23:59:00,
2013-11-14 18:00:00,44.0,31.8,30.02,NW,315,0.0,0.0,62,0.00,,,-99.99,Weather View 32 v60,2013-11-15 00:00:00,
2013-11-14 18:29:00,47.0,30.7,29.29,SW,225,8.0,14.0,53,0.00,,,-99.99,Weather View 32 v60,2013-11-15 00:29:00,
2013-11-14 18:30:00,44.0,31.8,30.03,WNW,292,0.0,5.0,62,0.00,,,-99.99,Weather View 32 v60,2013-11-15 00:30:00,
2013-11-14 18:59:00,46.0,32.0,29.29,SW,225,8.0,14.0,58,0.00,,,-99.99,Weather View 32 v60,2013-11-15 00:59:00,
2013-11-14 19:00:00,43.0,31.6,30.02,West,270,0.0,5.0,64,0.00,,,-99.99,Weather View 32 v60,2013-11-15 01:00:00,
2013-11-14 19:29:00,46.0,32.9,29.30,SW,225,5.0,13.0,60,0.00,,,-99.99,Weather View 32 v60,2013-11-15 01:29:00,
2013-11-14 19:30:00,43.0,32.8,30.03,West,270,0.0,5.0,67,0.00,,,-99.99,Weather View 32 v60,2013-11-15 01:30:00,
2013-11-14 19:59:00,46.0,33.3,29.30,WSW,248,7.0,10.0,61,0.00,,,-99.99,Weather View 32 v60,2013-11-15 01:59:00,
2013-11-14 20:00:00,43.0,33.1,30.04,West,270,0.0,5.0,68,0.00,,,-99.99,Weather View 32 v60,2013-11-15 02:00:00,
2013-11-14 20:29:00,46.0,32.9,29.30,SW,225,4.0,11.0,60,0.00,,,-99.99,Weather View 32 v60,2013-11-15 02:29:00,
2013-11-14 20:30:00,43.0,32.8,30.05,West,270,0.0,0.0,67,0.00,,,-99.99,Weather View 32 v60,2013-11-15 02:30:00,
2013-11-14 20:59:00,46.0,32.5,29.30,SW,225,3.0,11.0,59,0.00,,,-99.99,Weather View 32 v60,2013-11-15 02:59:00,
2013-11-14 21:00:00,43.0,32.4,30.04,West,270,0.0,0.0,66,0.00,,,-99.99,Weather View 32 v60,2013-11-15 03:00:00,
2013-11-14 21:29:00,46.0,32.0,29.30,SSW,202,3.0,11.0,58,0.00,,,-99.99,Weather View 32 v60,2013-11-15 03:29:00,
2013-11-14 21:30:00,43.0,32.4,30.05,NW,315,0.0,0.0,66,0.00,,,-99.99,Weather View 32 v60,2013-11-15 03:30:00,
2013-11-14 21:59:00,44.0,31.4,29.31,SSW,202,3.0,6.0,61,0.00,,,-99.99,Weather View 32 v60,2013-11-15 03:59:00,
2013-11-14 22:00:00,42.0,32.2,30.04,WNW,292,0.0,0.0,68,0.00,,,-99.99,Weather View 32 v60,2013-11-15 04:00:00,
2013-11-14 22:29:00,44.0,31.8,29.30,South,180,1.0,6.0,62,0.00,,,-99.99,Weather View 32 v60,2013-11-15 04:29:00,
2013-11-14 22:30:00,41.0,32.0,30.04,NW,315,0.0,0.0,70,0.00,,,-99.99,Weather View 32 v60,2013-11-15 04:30:00,
2013-11-14 22:59:00,44.0,31.4,29.29,South,180,3.0,5.0,61,0.00,,,-99.99,Weather View 32 v60,2013-11-15 04:59:00,
2013-11-14 23:00:00,40.0,31.3,30.04,West,270,0.0,0.0,71,0.00,,,-99.99,Weather View 32 v60,2013-11-15 05:00:00,
2013-11-14 23:29:00,43.0,31.2,29.28,SSW,202,3.0,5.0,63,0.00,,,-99.99,Weather View 32 v60,2013-11-15 05:29:00,
2013-11-14 23:30:00,40.0,31.7,30.04,West,270,0.0,0.0,72,0.00,,,-99.99,Weather View 32 v60,2013-11-15 05:30:00,